Location: Sternwarte Stuttgart
(48.7824°N, 9.1965°E)
Time: 01:57:16
(UTC+00:00)

ISS - Visible Passes

Search period start: 29 July 2021 00:00
Search period end: 08 August 2021 00:00
Orbit: 419 x 421 km, 51.6° (Epoch: 28 July)

Date Brightness Start Highest point End Pass type
(mag) Time Alt. Az. Time Alt. Az. Time Alt. Az.
29 Jul -1.7 21:13:18 10° W 21:15:32 17° SW 21:15:55 16° SSW visible
30 Jul -2.2 20:25:34 10° W 20:28:23 25° SW 20:30:17 15° S visible
31 Jul -2.7 19:38:02 10° WNW 19:41:11 36° SSW 19:44:18 10° SE visible
01 Aug -1.1 20:29:14 10° WSW 20:30:06 11° SW 20:30:58 10° SSW visible
02 Aug -1.4 19:40:45 10° W 19:42:58 17° SW 19:45:11 10° S visible
